Hourly Weather Muragovo

Today, 27 November, Friday

Time Temperature Precipitation Wind Pressure Humidity
00:00 -2°C° 0 mm 4 mps 741 mmHg 88%
01:00 -2°C° 0 mm 4 mps 741 mmHg 88%
02:00 -1°C° 0 mm 3 mps 740 mmHg 90%
03:00 -1°C° 0 mm 3 mps 740 mmHg 89%
04:00 -2°C° 0 mm 4 mps 739 mmHg 89%
05:00 -2°C° 0 mm 4 mps 739 mmHg 89%
06:00 -2°C° 0.3 mm 4 mps 739 mmHg 91%
07:00 -2°C° 0.3 mm 4 mps 738 mmHg 94%
08:00 -1°C° 0 mm 4 mps 738 mmHg 96%
09:00 -1°C° 0.5 mm 4 mps 738 mmHg 95%
10:00 0°C° 0.5 mm 4 mps 738 mmHg 95%
11:00 0°C° 0.5 mm 4 mps 737 mmHg 95%
12:00 +1°C° 0.5 mm 4 mps 737 mmHg 95%
13:00 +1°C° 0.5 mm 4 mps 737 mmHg 96%
14:00 +1°C° 0.5 mm 4 mps 737 mmHg 96%
15:00 +1°C° 0.4 mm 5 mps 737 mmHg 94%
16:00 0°C° 0.4 mm 5 mps 738 mmHg 93%
17:00 0°C° 0.4 mm 5 mps 738 mmHg 91%
18:00 -1°C° 0 mm 4 mps 738 mmHg 90%
19:00 -1°C° 0 mm 3 mps 738 mmHg 90%
20:00 -2°C° 0 mm 2 mps 739 mmHg 90%
21:00 -2°C° 0 mm 2 mps 739 mmHg 90%
22:00 -1°C° 0 mm 2 mps 740 mmHg 91%
23:00 +1°C° 0 mm 1 mps 740 mmHg 92%

Tomorrow, 28 November, Saturday

Time Temperature Precipitation Wind Pressure Humidity
00:00 +1°C° 0 mm 1 mps 740 mmHg 92%
01:00 +1°C° 0 mm 1 mps 741 mmHg 93%
02:00 +1°C° 0 mm 1 mps 741 mmHg 93%
03:00 0°C° 0 mm 1 mps 741 mmHg 93%
04:00 0°C° 0 mm 1 mps 741 mmHg 93%
05:00 0°C° 0 mm 1 mps 741 mmHg 93%
06:00 0°C° 0 mm 1 mps 742 mmHg 93%
07:00 0°C° 0 mm 1 mps 742 mmHg 92%
08:00 0°C° 0 mm 1 mps 743 mmHg 92%
09:00 0°C° 0 mm 1 mps 743 mmHg 90%
10:00 +1°C° 0 mm 1 mps 743 mmHg 87%
11:00 +1°C° 0 mm 1 mps 744 mmHg 84%
12:00 +2°C° 0 mm 1 mps 744 mmHg 85%
13:00 +2°C° 0 mm 1 mps 744 mmHg 85%
14:00 +1°C° 0 mm 2 mps 745 mmHg 85%
15:00 +1°C° 0 mm 2 mps 745 mmHg 88%
16:00 +1°C° 0 mm 2 mps 745 mmHg 91%
17:00 +1°C° 0 mm 2 mps 745 mmHg 94%
18:00 -1°C° 0 mm 2 mps 746 mmHg 94%
19:00 -1°C° 0 mm 2 mps 746 mmHg 93%
20:00 -1°C° 0 mm 3 mps 747 mmHg 92%
21:00 -1°C° 0 mm 3 mps 747 mmHg 93%
22:00 -1°C° 0 mm 3 mps 747 mmHg 94%
23:00 -1°C° 0 mm 3 mps 747 mmHg 95%

Day after tomorrow, 29 November, Sunday

Time Temperature Precipitation Wind Pressure Humidity
00:00 -1°C° 0 mm 3 mps 747 mmHg 95%
01:00 -1°C° 0 mm 3 mps 747 mmHg 94%
02:00 -1°C° 0 mm 3 mps 747 mmHg 93%
03:00 -1°C° 0.1 mm 3 mps 747 mmHg 94%
04:00 -1°C° 0.1 mm 3 mps 747 mmHg 95%
05:00 -1°C° 0.1 mm 3 mps 747 mmHg 96%
06:00 -2°C° 0.1 mm 3 mps 747 mmHg 96%
07:00 -2°C° 0.1 mm 3 mps 747 mmHg 95%
08:00 -2°C° 0.1 mm 3 mps 747 mmHg 95%
09:00 -2°C° 0.1 mm 3 mps 747 mmHg 94%
10:00 -1°C° 0.1 mm 3 mps 747 mmHg 94%
11:00 -1°C° 0.1 mm 3 mps 746 mmHg 93%
12:00 -1°C° 0.2 mm 3 mps 746 mmHg 94%
13:00 -1°C° 0.2 mm 3 mps 746 mmHg 96%
14:00 -1°C° 0.2 mm 3 mps 745 mmHg 97%
15:00 -1°C° 0.5 mm 3 mps 745 mmHg 97%
16:00 -1°C° 0.5 mm 3 mps 744 mmHg 98%
17:00 -1°C° 0.5 mm 3 mps 744 mmHg 98%
18:00 -1°C° 0.4 mm 3 mps 744 mmHg 98%
19:00 -1°C° 0.4 mm 2 mps 744 mmHg 98%
20:00 -1°C° 0.4 mm 2 mps 744 mmHg 98%
21:00 -1°C° 0 mm 2 mps 744 mmHg 97%
22:00 -2°C° 0 mm 2 mps 744 mmHg 97%
23:00 -2°C° 0 mm 2 mps 744 mmHg 97%

30 November, Monday

Time Temperature Precipitation Wind Pressure Humidity
00:00 -2°C° 0.1 mm 2 mps 745 mmHg 97%
01:00 -2°C° 0.1 mm 2 mps 745 mmHg 97%
02:00 -2°C° 0.1 mm 2 mps 745 mmHg 97%
03:00 -2°C° 0.1 mm 2 mps 745 mmHg 97%
04:00 -2°C° 0.1 mm 2 mps 746 mmHg 97%
05:00 -2°C° 0.1 mm 2 mps 746 mmHg 97%
06:00 -2°C° 0.1 mm 3 mps 746 mmHg 96%
07:00 -2°C° 0.1 mm 3 mps 747 mmHg 96%
08:00 -2°C° 0.1 mm 3 mps 748 mmHg 96%
09:00 -2°C° 0 mm 3 mps 748 mmHg 95%
10:00 -3°C° 0 mm 4 mps 748 mmHg 93%
11:00 -3°C° 0 mm 4 mps 748 mmHg 92%
12:00 -3°C° 0 mm 4 mps 749 mmHg 90%
13:00 -2°C° 0 mm 4 mps 749 mmHg 89%
14:00 -2°C° 0 mm 4 mps 749 mmHg 87%
15:00 -2°C° 0 mm 3 mps 749 mmHg 87%
16:00 -2°C° 0 mm 3 mps 750 mmHg 87%
17:00 -2°C° 0 mm 3 mps 750 mmHg 87%
18:00 -2°C° 0 mm 3 mps 750 mmHg 87%
19:00 -4°C° 0 mm 3 mps 751 mmHg 88%
20:00 -4°C° 0 mm 3 mps 751 mmHg 89%
21:00 -4°C° 0 mm 3 mps 751 mmHg 90%
22:00 -5°C° 0 mm 3 mps 751 mmHg 91%
23:00 -4°C° 0 mm 2 mps 751 mmHg 92%

1 December, Tuesday

Time Temperature Precipitation Wind Pressure Humidity
00:00 -4°C° 0 mm 2 mps 751 mmHg 91%
01:00 -4°C° 0 mm 2 mps 751 mmHg 91%
02:00 -4°C° 0 mm 2 mps 751 mmHg 91%
03:00 -4°C° 0 mm 2 mps 751 mmHg 91%
04:00 -4°C° 0 mm 2 mps 752 mmHg 91%
05:00 -4°C° 0 mm 2 mps 752 mmHg 92%
06:00 -4°C° 0 mm 2 mps 752 mmHg 92%
07:00 -5°C° 0 mm 2 mps 752 mmHg 93%
08:00 -5°C° 0 mm 2 mps 752 mmHg 94%
09:00 -4°C° 0 mm 2 mps 752 mmHg 92%
10:00 -4°C° 0 mm 2 mps 752 mmHg 90%
11:00 -3°C° 0 mm 2 mps 752 mmHg 88%
12:00 -3°C° 0 mm 2 mps 752 mmHg 87%
13:00 -3°C° 0 mm 2 mps 752 mmHg 87%
14:00 -3°C° 0 mm 2 mps 752 mmHg 86%
15:00 -4°C° 0 mm 2 mps 752 mmHg 88%
16:00 -2°C° 0 mm 1 mps 752 mmHg 90%
17:00 -3°C° 0 mm 1 mps 752 mmHg 91%
18:00 -3°C° 0 mm 1 mps 752 mmHg 92%
19:00 -3°C° 0 mm 1 mps 752 mmHg 92%
20:00 -3°C° 0 mm 1 mps 752 mmHg 93%
21:00 -3°C° 0 mm 1 mps 752 mmHg 93%
22:00 -3°C° 0 mm 1 mps 752 mmHg 93%
23:00 -5°C° 0 mm 2 mps 752 mmHg 94%

2 December, Wednesday

Time Temperature Precipitation Wind Pressure Humidity
00:00 -5°C° 0 mm 2 mps 752 mmHg 94%
01:00 -4°C° 0 mm 2 mps 752 mmHg 95%
02:00 -4°C° 0 mm 2 mps 752 mmHg 96%
03:00 -3°C° 0.2 mm 2 mps 752 mmHg 96%
04:00 -3°C° 0.2 mm 2 mps 752 mmHg 97%
05:00 -2°C° 0.2 mm 3 mps 752 mmHg 97%
06:00 -2°C° 0.1 mm 3 mps 752 mmHg 97%
07:00 -2°C° 0.1 mm 3 mps 752 mmHg 96%
08:00 -4°C° 0.1 mm 3 mps 752 mmHg 95%
09:00 -2°C° 0 mm 3 mps 752 mmHg 94%
10:00 -2°C° 0 mm 3 mps 752 mmHg 92%
11:00 -2°C° 0 mm 3 mps 752 mmHg 91%
12:00 -2°C° 0.1 mm 3 mps 752 mmHg 92%
13:00 -2°C° 0.1 mm 3 mps 752 mmHg 93%
14:00 -2°C° 0.1 mm 3 mps 752 mmHg 93%
15:00 -4°C° 0.1 mm 3 mps 752 mmHg 94%
16:00 -4°C° 0.1 mm 3 mps 752 mmHg 95%
17:00 -3°C° 0.1 mm 2 mps 752 mmHg 96%
18:00 -4°C° 0 mm 2 mps 753 mmHg 96%
19:00 -4°C° 0 mm 2 mps 753 mmHg 96%
20:00 -4°C° 0 mm 2 mps 753 mmHg 96%
21:00 -5°C° 0 mm 3 mps 753 mmHg 96%
22:00 -5°C° 0 mm 3 mps 753 mmHg 96%
23:00 -5°C° 0 mm 3 mps 754 mmHg 96%
Show more

We Need Your Consent

Meteoprog and our Service Providers may store and access personal data such as cookies, device identifiers or other similar technologies on your device and process such data to personalise content and ads, as well as provide social media features and to analyse the traffic.

  • Store and/or access information on your device

    Cookies, device identifiers or other information can be stored or accessed on your device for the purposes indicated above.

  • Personalised ads and content, ad and content measurement, audience insights, and products development

    Ads and content can be personalised based on a profile. More data can be added to better personalise ads and content. Ad and content performance can be measured. Insights about the audience who saw the ads and content can be derived. Such data can be used to develop or improve user’s experience, systems and software.

By clicking ‘I Agree’ you will allow the use of indicated cookies, device identifiers, web beacons or other similar technologies. Your settings can be changed in the browser on your device.

For certain purposes, legitimate interests may be relied on, rather than consent. You can read more about this in our Privacy and Cookie Policy.